Regional Weather Roundup
Issued by NWS

Home | Current Version | Previous Version | Text Only | Print | Product List | Glossary On
Versions: 1 2 3 4 5 6 7 8 9 10 11 12 13 14 15 16 17 18 19 20 21 22 23 24 25 26 27 28 29 30 31 32 33 34 35 36 37 38 39 40 41 42 43 44 45 46 47 48 49 50
000
ASUS43 KLSX 230259
RWRMO

WEATHER SUMMARY FOR MISSOURI
NATIONAL WEATHER SERVICE SPRINGFIELD MO
1000 PM CDT MON SEP 22 2014

NOTE: "FAIR" INDICATES FEW OR NO CLOUDS BELOW 12,000 FEET WITH NO
       SIGNIFICANT WEATHER AND/OR OBSTRUCTIONS TO VISIBILITY.
       CURRENT SKY AND/OR WEATHER CONDITIONS ARE NOT AVAILABLE FOR
       CHILLICOTHE AND FARMINGTON.

MOZ001>031-035>038-043-044-053-054-230400-
...NORTHERN AND WESTERN MISSOURI...

CITY           SKY/WX    TMP DP  RH WIND       PRES   REMARKS
KANSAS CTY INT CLOUDY    61  52  72 SE7       30.23S
KANSAS C DTWN  MOCLDY    69  51  52 SE7       30.22S
LEE`S SUMMIT   PTCLDY    64  51  62 SE5       30.24S
ST JOSEPH      MOCLDY    57  53  86 SW3       30.22S
KIRKSVILLE     PTCLDY    52  32  46 CALM      30.26F

$$
MOZ066>068-077>081-088>096-101>105-230400-
...SOUTHWEST MISSOURI...

CITY           SKY/WX    TMP DP  RH WIND       PRES   REMARKS
SPRINGFIELD    PTCLDY    62  49  62 E7        30.24S
JOPLIN         PTCLDY    61  53  75 E7        30.23S

$$
MOZ032>034-039>042-045>050-055>058-069>072-230400-
...CENTRAL MISSOURI...

CITY           SKY/WX    TMP DP  RH WIND       PRES   REMARKS
COLUMBIA       PTCLDY    60  50  69 E6        30.27R
JEFFERSON CITY PTCLDY    55  49  80 CALM      30.26R
ROLLA          CLEAR     52  45  77 E6        30.25S
SEDALIA        PTCLDY    60  51  72 SE3       30.26R
OSAGE BEACH    PTCLDY    54  48  82 CALM      30.25S

$$
MOZ051-052-059>065-230400-
...EAST CENTRAL MISSOURI...

CITY           SKY/WX    TMP DP  RH WIND       PRES   REMARKS
ST LOUIS INTL  PTCLDY    63  50  62 CALM      30.27R
SPIRIT OF STL  CLEAR     54  52  93 CALM      30.26R
ST CHARLES     CLEAR     56  52  86 CALM      30.26R

$$
MOZ072>076-082>087-097>100-106>115-230400-
...SOUTH CENTRAL AND SOUTHEAST MISSOURI...

CITY           SKY/WX    TMP DP  RH WIND       PRES   REMARKS
CAPE GIRARDEAU CLEAR     52  50  93 E3        30.25R
FARMINGTON     CLEAR     52  46  82 CALM      30.28S
POPLAR BLUFF   CLEAR     54  50  86 CALM      30.23R
WEST PLAINS    CLEAR     54  50  86 CALM      30.26R

$$


USA.gov is the U.S. government's official web portal to all federal, state and local government web resources and services.